Pipestone, MN

2:34 AM CDT on March 28, 2017 (GMT -0500)
Pipestone Municipal

Weather History for KPQN - November, 2013

Change the Weather History Date:

Friday, November 29, 2013

  Actual Average Record
Temperature  
Mean Temperature 22 °F -  
Max Temperature 35 °F 34 °F 55 °F (1998)
Min Temperature 10 °F 19 °F 8 °F (2006)
Degree Days  
Heating Degree Days 42    
Moisture  
Dew Point 16 °F    
Average Humidity 73    
Maximum Humidity 85    
Minimum Humidity 56    
Precipitation  
Precipitation 0.00 in - - ()
Sea Level Pressure  
Sea Level Pressure 30.21 in    
Wind  
Wind Speed 11 mph (South)    
Max Wind Speed 25 mph    
Max Gust Speed 30 mph    
Visibility 10 miles    
Events      
Averages and records for this station are not official NWS values.
T = Trace of Precipitation, MM = Missing Value Source: NWS Daily Summary

Daily Weather History Graph

Daily Weather History Graph

Search for Another Location

Airport or City:

Trip Planner

Search our weather history database for the weather conditions in past years. The results will help you decide how hot, cold, wet, or windy it might be!

Date:

Astronomy

Nov. 29, 2013 Rise Set
Actual Time 7:37 AM CST 4:49 PM CST
Civil Twilight 7:05 AM CST 5:21 PM CST
Nautical Twilight 6:29 AM CST 5:57 PM CST
Astronomical Twilight 5:55 AM CST 6:31 PM CST
Moon 3:37 AM CST (11/29) 2:40 PM CST (11/29)
Length of Visible Light 10h 15m
Length of Day
9h 11m
Waning Crescent, 14% of the Moon is Illuminated
Nov 29
Waning Crescent
Dec 2
New
Dec 9
First Quarter
Dec 17
Full
Dec 25
Last Quarter

Hourly Weather History & Observations

Time (CST) Temp. Windchill Dew Point Humidity Pressure Visibility Wind Dir Wind Speed Gust Speed Precip Events Conditions
12:13 AM 10.4 °F 2.2 °F 6.8 °F 85% 30.42 in 10.0 mi SE 4.6 mph - N/A   Clear
12:33 AM 10.4 °F 2.2 °F 6.8 °F 85% 30.41 in 10.0 mi SE 4.6 mph - N/A   Clear
12:53 AM 10.4 °F 4.0 °F 6.8 °F 85% 30.41 in 10.0 mi SE 3.5 mph - N/A   Clear
1:13 AM 10.4 °F 2.2 °F 6.8 °F 85% 30.40 in 10.0 mi SE 4.6 mph - N/A   Clear
1:33 AM 10.4 °F 0.8 °F 6.8 °F 85% 30.40 in 10.0 mi SSE 5.8 mph - N/A   Clear
1:53 AM 10.4 °F -0.4 °F 6.8 °F 85% 30.39 in 10.0 mi SE 6.9 mph - N/A   Clear
2:13 AM 14.0 °F 2.9 °F 8.6 °F 79% 30.40 in 10.0 mi SSE 8.1 mph - N/A   Clear
2:33 AM 14.0 °F 2.0 °F 6.8 °F 73% 30.40 in 10.0 mi South 9.2 mph - N/A   Clear
2:53 AM 14.0 °F 2.0 °F 8.6 °F 79% 30.40 in 10.0 mi South 9.2 mph - N/A   Clear
3:13 AM 14.0 °F 2.0 °F 8.6 °F 79% 30.39 in 10.0 mi South 9.2 mph - N/A   Clear
3:33 AM 14.0 °F 2.0 °F 8.6 °F 79% 30.38 in 10.0 mi South 9.2 mph - N/A   Clear
3:53 AM 14.0 °F 1.2 °F 8.6 °F 79% 30.37 in 10.0 mi South 10.4 mph - N/A   Clear
4:13 AM 14.0 °F 1.2 °F 8.6 °F 79% 30.36 in 10.0 mi South 10.4 mph - N/A   Clear
4:33 AM 12.2 °F -0.2 °F 6.8 °F 79% 30.36 in 10.0 mi South 9.2 mph - N/A   Clear
4:53 AM 12.2 °F 0.7 °F 6.8 °F 79% 30.35 in 10.0 mi South 8.1 mph - N/A   Clear
5:13 AM 12.2 °F 0.7 °F 6.8 °F 79% 30.35 in 10.0 mi South 8.1 mph - N/A   Clear
5:33 AM 12.2 °F 0.7 °F 8.6 °F 85% 30.35 in 10.0 mi South 8.1 mph - N/A   Clear
5:53 AM 12.2 °F -0.2 °F 8.6 °F 85% 30.34 in 10.0 mi South 9.2 mph - N/A   Clear
6:13 AM 14.0 °F 2.9 °F 8.6 °F 79% 30.33 in 10.0 mi South 8.1 mph - N/A   Clear
6:33 AM 12.2 °F -0.2 °F 8.6 °F 85% 30.32 in 10.0 mi SSE 9.2 mph - N/A   Clear
6:53 AM 14.0 °F 1.2 °F 8.6 °F 79% 30.32 in 10.0 mi South 10.4 mph - N/A   Clear
7:13 AM 12.2 °F -1.0 °F 8.6 °F 85% 30.32 in 10.0 mi South 10.4 mph - N/A   Clear
7:33 AM 14.0 °F 0.5 °F 8.6 °F 79% 30.31 in 10.0 mi South 11.5 mph - N/A   Clear
7:53 AM 14.0 °F -0.8 °F 8.6 °F 79% 30.31 in 10.0 mi South 13.8 mph 17.3 mph N/A   Clear
8:13 AM 15.8 °F 2.7 °F 10.4 °F 79% 30.32 in 10.0 mi SSE 11.5 mph 18.4 mph N/A   Clear
8:33 AM 15.8 °F 2.7 °F 10.4 °F 79% 30.31 in 10.0 mi South 11.5 mph - N/A   Clear
8:53 AM 17.6 °F 4.3 °F 12.2 °F 79% 30.30 in 10.0 mi South 12.7 mph - N/A   Clear
9:13 AM 19.4 °F 7.2 °F 14.0 °F 80% 30.30 in 10.0 mi South 11.5 mph 18.4 mph N/A   Clear
9:33 AM 23.0 °F 9.2 °F 15.8 °F 74% 30.30 in 10.0 mi South 17.3 mph - N/A   Clear
9:53 AM 24.8 °F 10.7 °F 15.8 °F 69% 30.29 in 10.0 mi South 19.6 mph - N/A   Clear
10:13 AM 24.8 °F 10.0 °F 17.6 °F 74% 30.28 in 10.0 mi SSW 21.9 mph 26.5 mph N/A   Clear
10:33 AM 24.8 °F 9.6 °F 15.8 °F 69% 30.27 in 10.0 mi SSW 23.0 mph 29.9 mph N/A   Clear
10:53 AM 26.6 °F 12.7 °F 17.6 °F 69% 30.27 in 10.0 mi SSW 20.7 mph 29.9 mph N/A   Clear
11:13 AM 28.4 °F 14.4 °F 17.6 °F 64% 30.25 in 10.0 mi SSW 23.0 mph 28.8 mph N/A   Clear
11:33 AM 30.2 °F 16.5 °F 17.6 °F 60% 30.23 in 10.0 mi South 24.2 mph 29.9 mph N/A   Clear
11:53 AM 28.4 °F 13.8 °F 17.6 °F 64% 30.21 in 10.0 mi SSW 25.3 mph 28.8 mph N/A   Clear
12:13 PM 30.2 °F 16.2 °F 19.4 °F 64% 30.20 in 10.0 mi SSW 25.3 mph - N/A   Clear
12:33 PM 33.8 °F 21.6 °F 19.4 °F 56% 30.19 in 10.0 mi South 23.0 mph 26.5 mph N/A   Clear
12:53 PM 33.8 °F 21.3 °F 19.4 °F 56% 30.17 in 10.0 mi SSW 24.2 mph - N/A   Clear
1:13 PM 33.8 °F 22.2 °F 19.4 °F 56% 30.15 in 10.0 mi South 20.7 mph 25.3 mph N/A   Clear
1:33 PM 33.8 °F 21.6 °F 19.4 °F 56% 30.14 in 10.0 mi South 23.0 mph - N/A   Clear
1:53 PM 33.8 °F 21.3 °F 19.4 °F 56% 30.12 in 10.0 mi South 24.2 mph - N/A   Clear
2:14 PM 33.8 °F 22.5 °F 19.4 °F 56% 30.12 in 10.0 mi South 19.6 mph 24.2 mph N/A   Clear
2:33 PM 33.8 °F 22.8 °F 19.4 °F 56% 30.11 in 10.0 mi South 18.4 mph 24.2 mph N/A   Clear
2:53 PM 33.8 °F 22.2 °F 19.4 °F 56% 30.09 in 10.0 mi South 20.7 mph 28.8 mph N/A   Clear
3:14 PM 35.6 °F 25.2 °F 21.2 °F 56% 30.08 in 10.0 mi SSW 18.4 mph 26.5 mph N/A   Clear
3:33 PM 35.6 °F 24.8 °F 21.2 °F 56% 30.09 in 10.0 mi South 19.6 mph - N/A   Clear
3:53 PM 35.6 °F 24.8 °F 21.2 °F 56% 30.08 in 10.0 mi SSW 19.6 mph 24.2 mph N/A   Clear
4:13 PM 33.8 °F 24.8 °F 21.2 °F 60% 30.08 in 10.0 mi SSW 12.7 mph - N/A   Clear
4:33 PM 33.8 °F 23.9 °F 21.2 °F 60% 30.06 in 10.0 mi SSW 15.0 mph - N/A   Clear
4:53 PM 33.8 °F 25.8 °F 21.2 °F 60% 30.08 in 10.0 mi SSW 10.4 mph - N/A   Clear
5:13 PM 33.8 °F 24.8 °F 21.2 °F 60% 30.09 in 10.0 mi SW 12.7 mph - N/A   Clear
5:33 PM 30.2 °F 21.3 °F 21.2 °F 69% 30.08 in 10.0 mi SSW 10.4 mph - N/A   Clear
5:53 PM 30.2 °F 22.6 °F 21.2 °F 69% 30.08 in 10.0 mi SSW 8.1 mph - N/A   Clear
6:13 PM 28.4 °F 20.4 °F 19.4 °F 69% 30.08 in 10.0 mi SSW 8.1 mph - N/A   Clear
6:33 PM 28.4 °F 21.2 °F 19.4 °F 69% 30.09 in 10.0 mi South 6.9 mph - N/A   Clear
6:53 PM 26.6 °F 19.1 °F 19.4 °F 74% 30.09 in 10.0 mi South 6.9 mph - N/A   Clear
7:13 PM 26.6 °F 17.5 °F 19.4 °F 74% 30.09 in 10.0 mi SSW 9.2 mph - N/A   Clear
7:33 PM 28.4 °F 18.5 °F 21.2 °F 74% 30.07 in 10.0 mi SSW 11.5 mph - N/A   Clear
7:53 PM 30.2 °F 20.2 °F 21.2 °F 69% 30.07 in 10.0 mi SSW 12.7 mph - N/A   Clear
8:13 PM 30.2 °F 20.2 °F 23.0 °F 75% 30.06 in 10.0 mi SSW 12.7 mph 19.6 mph N/A   Clear
8:33 PM 32.0 °F 21.6 °F 24.8 °F 75% 30.06 in 10.0 mi SSW 15.0 mph - N/A   Clear
8:53 PM 30.2 °F 20.2 °F 23.0 °F 75% 30.05 in 10.0 mi SSW 12.7 mph - N/A   Clear
9:14 PM 30.2 °F 19.8 °F 23.0 °F 75% 30.04 in 10.0 mi SSW 13.8 mph - N/A   Clear
9:33 PM 30.2 °F 21.3 °F 23.0 °F 75% 30.04 in 10.0 mi SSW 10.4 mph - N/A   Clear
9:53 PM 30.2 °F 20.2 °F 23.0 °F 75% 30.04 in 10.0 mi SSW 12.7 mph - N/A   Clear
10:13 PM 30.2 °F 20.8 °F 23.0 °F 75% 30.04 in 10.0 mi SSW 11.5 mph - N/A   Clear
10:33 PM 28.4 °F 18.0 °F 23.0 °F 80% 30.03 in 10.0 mi SSW 12.7 mph - N/A   Clear
10:54 PM 28.4 °F 19.1 °F 23.0 °F 80% 30.04 in 10.0 mi SSW 10.4 mph - N/A   Clear
11:13 PM 28.4 °F 20.4 °F 23.0 °F 80% 30.04 in 10.0 mi SSW 8.1 mph - N/A   Clear
11:33 PM 28.4 °F 19.1 °F 23.0 °F 80% 30.03 in 10.0 mi SSW 10.4 mph - N/A   Clear
11:53 PM 28.4 °F 20.4 °F 23.0 °F 80% 30.02 in 10.0 mi SSW 8.1 mph - N/A   Clear